Temperature
13 14 14 15 12 11 12 14 15 17 17 18 18 18 16 15 16 15 15 15 16 16 16 16 16 17 17 17 17 17 17 17 17 17 17 17 17 17 17 17 17 16 16 16 16 16 16 15 15
13 14 14 14 11 11 12 14 15 16 18 19 18 17 16 15 15 15 15 15 16 16 16 16 16 16 16 17 17 17 17 17 17 17 17 17 17 17 17 16 16 16 16 16 16 16 15 15 15
13 14 14 10 11 11 14 14 15 16 18 18 17 16 15 15 15 15 15 15 16 16 16 16 16 16 16 16 16 17 17 17 17 17 17 17 17 17 16 16 16 16 16 16 16 16 15 15 15
13 14 13 10 12 13 14 15 15 16 18 18 17 14 14 14 14 14 15 15 16 16 16 16 16 16 16 16 16 16 16 16 16 17 17 16 16 16 16 16 16 16 16 16 16 15 15 15 15
13 13 10 10 12 13 14 15 16 16 16 16 16 13 13 13 14 14 15 15 15 16 16 16 16 16 16 16 16 16 16 16 16 16 16 16 16 16 16 16 16 16 16 16 16 15 15 15 15
12 10 9 10 12 13 14 16 16 15 15 16 15 13 12 13 14 14 15 15 15 15 15 15 15 15 16 16 16 16 16 16 16 16 16 16 16 16 16 16 16 16 16 16 15 16 15 15 15
11 9 10 11 11 13 14 15 14 13 14 15 15 12 12 13 13 14 14 15 15 15 15 15 15 15 15 15 16 16 16 16 16 16 16 16 16 16 16 16 16 16 16 15 15 15 15 15 15
12 9 11 11 12 13 14 14 14 14 14 15 15 13 12 13 13 14 14 14 15 15 15 15 15 15 15 15 15 15 15 15 16 16 16 16 15 15 15 15 15 15 15 15 15 15 15 15 15
12 9 10 11 11 12 13 13 14 14 14 14 13 13 13 13 13 14 14 14 14 14 15 15 15 15 15 15 15 15 15 15 15 15 15 15 15 15 15 15 15 15 15 15 15 15 15 15 15
11 8 10 11 11 11 12 12 13 13 12 12 12 13 13 13 13 13 14 14 14 14 14 14 15 15 15 15 15 15 15 15 15 15 15 15 15 15 15 15 15 15 15 15 15 15 15 15 15
10 9 10 10 11 12 12 12 12 12 11 12 12 12 12 13 13 13 13 13 13 13 13 14 14 14 14 14 15 15 14 15 15 15 15 15 15 15 15 15 15 15 15 15 15 15 15 15 15
9 10 10 10 11 11 11 11 11 11 11 12 12 12 12 12 12 12 12 12 12 13 13 13 13 13 14 14 14 14 14 14 14 14 14 14 15 15 15 15 15 15 15 15 15 15 15 15 15
9 9 10 10 11 11 11 11 11 11 12 12 12 12 12 12 12 12 12 12 12 12 12 12 13 13 13 13 14 14 14 14 14 14 14 14 14 14 14 14 14 14 14 14 15 15 15 15 15
9 9 10 10 10 10 10 10 10 11 12 12 12 11 11 11 11 11 11 11 11 11 12 12 12 12 12 13 13 13 14 14 14 14 14 14 14 14 14 14 14 14 14 14 14 14 15 15 15
9 8 9 9 10 10 10 9 9 11 11 11 11 11 11 11 11 11 10 10 11 11 11 11 11 12 12 12 12 13 13 13 13 13 13 14 14 14 14 14 14 14 14 14 14 14 14 14 14
8 7 7 9 9 9 9 9 9 11 11 10 10 10 10 10 10 10 10 10 10 10 10 11 11 11 11 11 12 12 12 12 13 13 13 13 13 13 13 13 14 14 14 14 14 14 14 14 14
7 7 7 8 9 9 9 8 9 10 10 10 10 10 10 10 10 9 9 9 10 10 10 10 10 11 11 11 11 11 12 12 12 12 13 13 13 13 13 13 13 13 13 13 13 13 13 14 14
6 7 7 8 9 9 8 8 8 9 9 9 9 9 9 9 9 9 9 9 9 9 9 9 10 10 10 11 11 11 11 11 11 12 12 12 12 12 13 13 13 13 13 13 13 13 13 13 13
7 7 7 8 9 9 8 7 8 9 9 8 8 8 8 8 8 8 8 8 9 9 9 9 9 9 10 10 10 11 11 11 11 11 11 11 12 12 12 12 12 12 13 13 13 13 13 13 13
7 7 7 8 9 8 8 7 8 8 8 8 8 8 8 8 8 8 8 8 8 8 8 8 8 9 9 9 9 9 10 10 10 10 11 11 11 11 11 11 12 12 12 12 12 12 12 12 12
7 7 7 7 8 8 7 7 7 8 8 8 8 7 7 7 7 7 7 7 7 7 7 7 7 8 8 8 8 9 9 9 10 10 10 10 10 10 11 11 11 11 11 11 12 12 12 12 12
7 8 8 7 6 6 7 6 7 7 7 6 7 7 7 7 7 6 6 7 7 7 7 7 7 7 7 8 8 8 8 8 9 9 9 9 10 10 10 10 10 11 11 11 11 11 11 11 11
7 8 7 7 6 6 6 6 6 7 6 6 6 6 7 6 6 6 6 6 6 6 6 6 7 7 7 7 7 8 8 8 8 8 8 9 9 9 9 9 10 10 10 10 10 10 10 11 10
8 7 7 6 5 6 6 5 6 6 6 6 6 6 6 6 6 6 6 6 6 6 6 6 6 7 7 7 7 7 7 7 7 8 8 8 8 9 9 9 9 9 9 9 10 10 10 10 10
7 5 5 5 5 5 6 6 6 6 6 6 6 6 6 6 6 6 5 5 5 6 6 6 6 6 6 7 7 6 7 7 7 7 7 7 7 8 8 8 8 8 9 9 9 9 9 9 9
7 6 5 6 6 5 6 6 6 7 7 7 7 7 6 6 6 5 5 5 5 5 5 5 6 6 6 6 6 6 6 6 6 6 6 7 7 7 7 7 8 8 8 8 8 9 9 9 9
7 6 6 5 5 5 5 5 6 6 6 6 6 6 6 6 6 5 5 5 5 5 5 5 5 5 5 6 6 6 6 6 6 6 6 6 6 6 6 7 7 7 8 8 8 8 8 8 8
7 6 5 5 6 6 5 5 5 6 6 6 5 6 6 6 5 5 5 5 5 5 4 4 5 5 5 5 5 5 5 5 5 6 6 6 6 6 6 6 7 7 7 7 7 7 7 7 8
6 6 6 5 5 5 5 5 6 6 6 6 6 7 7 6 6 5 5 5 5 4 4 4 4 4 4 4 5 5 5 5 5 5 5 5 5 5 6 6 6 6 6 6 7 7 7 7 7
6 6 5 5 5 4 4 5 7 6 6 6 7 7 7 6 6 6 5 5 5 4 4 4 4 4 4 4 4 4 4 4 4 4 4 5 5 5 5 5 5 5 5 6 6 6 6 6 6
Wind_Speed
2 4 3 4 5 4 4 5 3 2 3 2 2 8 9 6 5 7 3 6 3 1 3 7 8 10 10 10 10 10 10 10 10 11 11 10 10 10 10 10 10 10 10 11 10 11 11 12 12
2 2 4 5 5 4 4 4 5 4 4 4 5 7 8 7 4 5 3 7 4 3 4 5 7 9 9 9 9 9 9 10 10 10 10 10 10 9 9 9 9 9 10 10 10 11 10 11 11
2 2 4 4 4 7 6 5 7 3 0 2 5 6 6 5 3 2 4 5 5 4 5 4 6 7 8 9 9 9 8 8 9 9 9 9 9 9 9 9 9 9 10 10 10 11 11 10 10
3 4 4 4 5 4 5 4 5 4 3 4 6 7 5 4 2 1 4 5 6 4 5 4 5 5 6 7 7 8 8 7 8 8 9 9 9 9 9 9 9 9 10 10 11 11 11 10 9
4 4 4 2 4 3 3 2 2 4 3 4 6 7 4 5 3 4 6 7 6 5 6 4 4 4 5 5 6 7 7 7 7 7 8 9 9 9 9 10 10 11 11 11 11 11 11 10 9
3 4 4 5 4 2 2 2 1 3 4 4 5 6 3 3 4 5 6 7 7 6 7 7 4 3 3 3 4 5 6 7 7 7 8 8 9 9 10 11 11 12 12 12 12 12 11 10 9
4 4 6 7 5 3 2 1 2 4 5 3 3 6 3 2 3 4 7 7 8 8 7 8 7 5 3 0 2 4 5 6 7 7 8 8 9 10 11 11 12 13 13 13 13 13 12 11 9
4 4 4 4 6 3 1 3 3 4 3 3 4 7 4 2 1 5 7 8 8 8 7 7 8 7 6 4 2 4 6 6 6 7 8 9 9 10 11 12 13 13 14 14 14 13 13 12 11
4 4 3 2 5 4 1 4 3 3 6 5 5 4 4 2 4 7 7 8 8 8 7 7 7 7 7 5 4 3 5 7 7 7 8 8 8 9 11 12 13 14 14 15 14 14 14 13 12
4 3 2 1 3 4 4 4 3 5 7 5 5 5 5 6 7 7 6 6 7 7 7 6 6 6 7 6 5 4 4 6 7 7 7 7 8 9 10 12 14 15 15 15 15 15 15 13 10
4 5 3 2 2 3 4 4 4 5 4 2 4 3 4 6 6 5 4 3 3 4 5 6 6 6 6 5 5 4 4 5 6 7 8 7 7 7 8 8 10 12 13 12 13 13 12 11 10
4 3 3 2 3 4 4 3 5 4 3 2 3 3 3 5 4 3 3 3 4 4 5 6 5 6 6 6 5 4 4 4 4 6 8 6 4 4 5 6 8 9 10 9 9 9 10 11 12
4 3 4 4 7 5 6 4 3 1 1 2 3 3 3 3 3 3 2 3 4 5 6 6 5 5 6 5 5 4 4 4 6 6 7 7 4 5 5 5 7 9 10 9 8 8 8 9 9
4 5 4 4 5 3 4 3 2 1 1 2 3 2 2 2 2 3 4 4 5 5 6 6 5 5 5 4 4 5 5 6 6 6 7 7 7 5 5 5 6 8 10 11 9 9 8 7 7
5 6 5 2 2 1 3 3 2 3 2 2 2 2 2 2 2 2 3 3 4 5 6 7 6 6 5 5 5 5 6 6 5 6 7 7 7 7 6 6 6 8 11 11 9 8 7 6 7
5 5 3 2 2 1 4 1 4 1 3 2 1 1 1 2 2 3 3 3 4 5 6 7 7 7 6 5 6 5 6 6 5 7 7 7 8 7 6 6 6 8 9 8 7 7 7 8 8
4 4 3 1 1 2 3 3 4 1 3 1 0 1 1 2 3 3 3 4 4 5 6 7 7 7 7 6 6 6 6 5 6 6 6 8 8 7 5 5 6 7 6 6 8 7 7 7 8
5 4 3 3 2 3 3 3 4 2 1 1 0 1 1 2 3 4 4 5 6 6 6 6 7 7 7 5 5 5 5 5 5 5 6 8 7 7 6 5 6 6 6 6 7 7 7 6 7
5 5 4 2 2 2 3 4 5 3 2 2 0 0 1 2 3 3 4 6 7 7 8 7 7 7 6 4 4 4 4 5 4 5 6 7 7 6 5 5 5 6 7 8 8 6 7 7 4
6 6 3 2 1 1 1 4 4 3 3 3 3 1 0 2 4 5 5 6 6 7 8 8 7 7 6 4 4 4 4 4 4 4 5 7 7 6 5 5 5 6 6 7 7 6 5 5 5
5 4 3 2 2 3 2 5 2 1 2 2 2 2 0 1 3 4 5 6 6 7 8 8 8 8 7 6 4 4 3 3 3 4 5 5 6 6 5 5 5 6 6 7 7 8 8 6 6
3 1 3 3 3 2 1 2 5 2 1 1 2 1 1 2 2 3 5 6 6 7 7 7 8 8 7 6 4 4 3 4 5 5 5 6 6 6 5 5 5 6 6 6 7 7 6 6 6
2 1 3 2 2 2 1 2 6 2 3 4 4 3 2 2 2 3 4 5 6 6 6 7 7 7 7 6 5 4 4 4 4 4 5 5 5 5 5 5 4 5 5 6 6 6 7 6 7
2 4 4 4 3 2 4 4 5 3 5 4 3 3 3 3 3 3 4 4 5 5 6 6 7 7 7 7 6 5 5 5 5 5 5 5 4 4 5 5 4 4 4 5 5 6 7 6 6
4 4 3 3 2 4 2 3 6 5 4 5 4 4 3 3 2 3 4 5 5 6 6 6 7 7 8 7 6 6 5 5 4 5 5 5 4 4 5 5 4 3 4 3 3 4 4 5 5
1 4 4 3 3 4 2 5 6 4 2 3 4 4 3 2 2 3 3 4 4 5 5 5 6 7 7 7 6 5 5 4 4 4 4 4 4 5 5 5 4 4 4 3 2 2 2 2 3
2 1 3 3 0 2 5 5 5 2 1 2 3 4 4 3 3 3 3 3 4 4 4 4 5 6 7 6 6 5 6 5 5 5 4 4 4 4 5 5 4 4 3 3 2 1 2 2 2
1 2 3 2 1 3 5 5 5 6 6 5 5 5 5 4 3 3 3 3 3 3 3 3 4 4 5 6 5 5 6 6 5 5 5 5 6 5 5 5 5 5 4 3 2 2 1 1 1
1 1 2 2 2 3 4 7 5 7 7 7 7 6 5 5 4 4 3 2 2 3 3 3 4 4 5 6 5 6 6 6 6 6 6 6 6 6 6 6 5 5 5 4 2 2 2 2 2
4 4 4 3 3 3 3 7 5 5 5 6 6 5 5 5 4 3 3 1 1 2 2 3 3 4 4 5 5 5 6 6 6 6 6 6 6 7 6 6 6 6 6 5 5 4 3 3 3
Wind_Direction
351 17 74 61 68 77 207 235 226 163 156 183 102 101 103 83 98 135 230 317 347 76 139 148 148 146 144 144 145 146 151 150 148 147 146 144 144 142 142 141 140 139 137 134 132 128 123 123 120
40 56 65 69 109 151 237 237 203 207 188 151 91 84 80 76 70 90 336 328 1 73 111 136 146 149 148 147 149 150 153 159 159 157 156 156 155 154 154 151 149 146 144 140 137 134 131 129 127
31 86 95 98 145 176 199 219 196 199 121 122 82 62 79 74 60 58 323 333 35 62 81 113 136 149 153 153 155 158 160 165 168 167 168 168 166 165 165 163 159 154 151 147 144 141 139 137 136
74 68 69 108 185 210 197 208 176 147 62 59 101 71 60 16 46 28 349 21 55 53 61 94 115 142 155 160 163 167 169 173 174 177 179 179 176 176 174 170 165 162 157 155 153 150 149 149 148
67 95 106 152 200 232 227 243 161 108 89 60 93 94 68 349 22 34 28 36 54 43 43 66 99 121 146 160 171 177 180 184 186 187 190 191 189 186 183 178 174 170 167 165 162 160 159 160 162
74 90 126 179 190 207 248 288 81 81 86 67 84 97 102 318 28 24 33 39 43 42 37 42 54 86 117 154 179 187 191 195 197 200 202 203 201 195 191 187 181 179 177 175 172 168 168 170 175
119 121 157 165 166 187 209 52 82 101 75 37 93 103 127 334 13 40 45 42 39 38 35 28 27 30 30 19 203 206 206 208 209 210 210 213 213 206 199 193 189 188 187 184 180 178 177 179 184
135 121 143 159 157 179 222 82 78 93 87 29 83 118 147 221 27 53 45 37 32 31 27 20 16 16 7 350 301 249 231 224 222 219 219 219 220 216 208 199 197 195 194 191 189 188 187 187 191
103 90 143 168 160 163 117 90 42 44 71 48 53 100 132 119 58 49 36 25 22 18 10 10 9 4 357 342 329 297 255 240 235 232 227 221 222 218 211 206 202 201 200 198 197 196 194 194 197
88 131 173 257 171 136 82 79 76 65 56 56 51 45 63 66 60 54 40 24 13 360 354 359 358 352 347 339 329 316 289 263 247 240 234 226 224 220 216 211 206 205 204 203 204 202 199 196 199
102 142 140 40 47 85 74 50 38 91 65 102 116 78 52 59 54 49 35 19 356 339 345 346 343 345 344 336 327 316 305 283 263 249 237 232 226 224 219 211 209 208 206 205 207 204 199 195 197
105 76 104 68 48 59 60 61 47 67 149 166 137 121 79 62 44 33 17 352 342 346 338 335 337 339 337 333 322 309 307 294 276 258 244 233 224 219 215 210 208 205 204 202 200 199 200 201 204
100 100 72 79 73 76 73 65 76 56 194 127 93 72 68 60 36 23 16 359 349 342 333 327 328 332 330 328 322 315 298 289 280 267 250 237 229 221 219 215 210 208 205 201 199 200 203 207 210
115 104 90 59 63 55 80 49 62 258 149 79 76 79 83 62 36 19 7 354 344 335 326 321 323 325 327 317 308 309 309 300 292 282 265 245 237 231 222 218 214 212 208 206 205 207 208 213 214
93 83 59 41 77 65 78 23 279 240 107 72 52 58 59 32 20 6 343 334 331 330 328 324 319 325 323 314 308 312 308 304 296 286 276 263 247 236 228 218 217 217 213 208 208 211 211 216 219
72 73 73 330 120 92 104 221 286 238 120 103 15 20 43 4 5 359 357 345 334 334 333 326 328 326 319 313 308 309 305 302 295 290 283 274 262 247 233 224 223 221 214 208 210 211 214 221 222
62 108 134 251 154 127 126 216 283 306 126 144 296 27 38 19 10 1 357 351 340 336 330 327 324 320 315 308 309 305 303 298 297 295 285 276 268 257 241 228 230 223 214 213 216 216 215 221 222
154 144 146 186 202 138 162 235 277 288 150 187 154 74 37 17 350 350 352 353 351 342 333 327 325 321 316 312 312 307 301 295 299 294 289 281 273 262 252 238 229 220 218 217 218 220 219 221 218
131 121 123 171 174 156 204 245 265 263 184 187 201 17 1 330 332 358 0 359 356 350 344 333 328 324 326 325 318 308 300 296 295 288 290 288 281 272 255 245 233 220 220 221 218 217 219 224 206
91 98 87 55 55 139 242 274 262 228 192 185 168 172 271 342 352 353 357 355 348 340 338 336 332 324 319 309 297 279 279 278 280 292 298 294 287 278 267 247 242 230 227 228 221 215 218 224 200
68 112 132 131 14 17 16 322 286 266 138 128 146 167 192 336 330 332 341 343 341 339 334 332 328 326 320 310 306 307 301 297 303 311 306 301 299 288 279 262 250 239 228 227 225 217 214 223 215
76 61 119 104 74 309 100 285 278 246 229 229 226 216 245 300 314 326 334 335 335 331 329 329 330 331 326 323 324 313 301 288 283 294 295 297 298 293 285 270 257 250 241 236 231 228 222 215 221
139 61 88 92 92 347 263 191 278 246 238 249 238 231 240 272 293 311 316 316 324 329 332 331 333 334 332 328 326 316 305 291 293 298 300 303 303 302 301 287 263 252 246 242 240 232 228 223 224
80 50 50 51 66 300 227 183 268 239 226 238 235 237 251 272 286 297 306 316 323 330 336 338 339 338 338 337 335 328 313 312 317 318 315 316 316 315 318 309 291 274 260 247 244 240 231 229 232
59 77 49 10 357 263 231 194 248 246 231 215 220 231 243 257 275 297 316 323 324 329 338 340 342 341 341 343 346 342 332 324 322 323 323 324 324 325 322 316 309 298 285 268 250 247 246 237 238
163 134 148 185 231 285 298 233 251 251 235 200 196 210 228 245 270 291 308 314 319 328 337 340 343 342 345 350 351 349 350 345 340 336 332 332 324 319 319 318 312 309 300 292 270 237 230 239 241
139 164 168 135 238 282 277 276 292 212 229 212 216 217 227 237 251 274 304 318 322 327 330 334 341 343 348 352 354 357 358 358 351 348 349 343 334 330 334 333 329 324 318 309 296 269 237 217 230
151 142 94 121 175 278 289 266 248 236 237 237 237 234 236 239 247 260 280 303 314 323 328 342 352 354 353 355 359 5 2 359 357 1 1 354 346 345 346 351 353 350 350 351 340 325 331 297 273
162 174 148 157 183 196 280 273 230 219 218 221 232 230 226 231 238 247 258 273 300 329 343 353 353 358 360 0 3 5 4 5 9 13 8 5 4 2 1 1 3 5 4 1 10 11 11 12 355
190 196 163 172 235 207 229 271 265 223 220 215 226 230 226 228 230 233 237 255 297 325 343 352 352 358 359 359 5 8 9 10 13 13 7 8 13 12 10 14 20 22 16 14 23 23 21 25 19
Height
1502 1504 1507 1510 1515 1525 1524 1516 1509 1506 1506 1505 1505 1506 1509 1515 1519 1528 1526 1523 1523 1524 1524 1525 1526 1526 1527 1528 1529 1530 1531 1532 1533 1534 1535 1536 1536 1537 1537 1538 1538 1538 1539 1539 1539 1540 1540 1540 1541
1501 1504 1508 1509 1519 1529 1523 1512 1507 1504 1503 1504 1505 1507 1510 1516 1519 1522 1523 1523 1523 1524 1524 1525 1526 1527 1527 1528 1529 1530 1531 1532 1533 1534 1535 1536 1536 1537 1537 1538 1539 1539 1539 1539 1540 1540 1541 1541 1542
1501 1503 1507 1510 1518 1521 1515 1506 1504 1502 1503 1503 1506 1509 1513 1518 1521 1522 1523 1523 1523 1524 1524 1525 1526 1526 1527 1528 1529 1530 1531 1532 1533 1534 1535 1535 1536 1537 1537 1538 1538 1539 1539 1540 1540 1541 1541 1542 1542
1501 1504 1506 1512 1513 1510 1506 1502 1501 1501 1502 1503 1505 1512 1516 1521 1522 1523 1523 1523 1523 1524 1524 1525 1525 1526 1527 1528 1529 1530 1531 1532 1533 1533 1534 1535 1536 1536 1537 1538 1538 1539 1539 1540 1540 1541 1541 1542 1543
1499 1501 1508 1513 1511 1506 1503 1501 1501 1501 1503 1505 1506 1513 1518 1521 1522 1522 1523 1523 1523 1523 1524 1524 1525 1526 1526 1527 1528 1529 1530 1531 1532 1533 1533 1534 1535 1536 1536 1537 1537 1538 1539 1539 1540 1540 1541 1542 1543
1499 1501 1512 1514 1509 1505 1502 1502 1501 1502 1504 1506 1508 1513 1520 1521 1522 1522 1522 1523 1523 1523 1524 1524 1524 1525 1526 1527 1527 1528 1529 1530 1531 1532 1532 1533 1534 1535 1535 1536 1537 1537 1538 1539 1539 1540 1541 1541 1542
1498 1502 1507 1508 1508 1505 1503 1502 1503 1504 1505 1508 1509 1514 1519 1521 1521 1522 1522 1522 1523 1523 1523 1523 1524 1524 1525 1525 1526 1527 1528 1529 1529 1530 1531 1532 1533 1533 1534 1535 1535 1536 1537 1538 1538 1539 1540 1541 1541
1496 1500 1503 1506 1506 1505 1503 1503 1505 1505 1507 1509 1510 1514 1518 1521 1521 1521 1521 1522 1522 1522 1522 1523 1523 1523 1523 1524 1525 1525 1526 1527 1528 1529 1529 1530 1531 1532 1532 1533 1534 1535 1535 1536 1537 1538 1539 1540 1541
1496 1504 1506 1505 1504 1504 1502 1503 1506 1507 1508 1510 1512 1514 1518 1519 1520 1520 1520 1521 1521 1521 1521 1521 1521 1522 1522 1522 1523 1523 1524 1525 1526 1526 1527 1528 1529 1530 1530 1531 1532 1533 1534 1534 1535 1536 1537 1538 1539
1495 1505 1504 1502 1501 1502 1502 1504 1507 1509 1510 1512 1514 1516 1518 1518 1519 1519 1519 1519 1519 1520 1520 1520 1519 1520 1520 1520 1520 1521 1522 1522 1523 1524 1525 1525 1526 1527 1528 1529 1530 1531 1531 1532 1533 1534 1535 1536 1537
1496 1501 1502 1502 1501 1501 1503 1506 1507 1509 1513 1514 1515 1516 1517 1518 1518 1518 1519 1519 1519 1518 1518 1518 1517 1517 1517 1517 1517 1518 1519 1519 1520 1521 1522 1522 1523 1524 1525 1526 1527 1528 1529 1530 1531 1532 1533 1534 1535
1498 1501 1501 1502 1502 1503 1505 1507 1509 1511 1513 1514 1515 1516 1517 1517 1518 1518 1518 1518 1517 1517 1516 1516 1515 1514 1514 1514 1514 1515 1515 1516 1517 1517 1518 1519 1520 1520 1521 1523 1524 1525 1526 1526 1527 1529 1530 1531 1532
1499 1502 1503 1504 1504 1505 1507 1509 1510 1512 1514 1515 1515 1516 1516 1517 1517 1517 1517 1516 1516 1515 1514 1513 1512 1512 1511 1511 1511 1511 1512 1512 1513 1514 1514 1515 1516 1517 1518 1519 1520 1521 1522 1523 1524 1525 1526 1528 1529
1500 1502 1505 1506 1506 1507 1509 1511 1512 1513 1513 1514 1515 1515 1516 1516 1516 1516 1515 1515 1514 1513 1512 1511 1510 1509 1508 1508 1508 1507 1508 1508 1509 1509 1510 1511 1512 1512 1513 1514 1516 1517 1518 1519 1521 1522 1523 1524 1525
1501 1505 1507 1508 1508 1510 1510 1513 1513 1512 1513 1514 1514 1515 1515 1515 1515 1515 1514 1513 1512 1511 1510 1508 1507 1506 1506 1505 1504 1504 1503 1504 1504 1504 1506 1506 1507 1508 1509 1510 1511 1512 1513 1515 1516 1518 1519 1520 1521
1504 1509 1513 1510 1509 1511 1515 1518 1513 1512 1512 1513 1514 1514 1514 1514 1514 1513 1512 1511 1510 1508 1507 1506 1504 1503 1503 1502 1501 1500 1500 1499 1499 1500 1500 1501 1502 1503 1504 1505 1506 1507 1509 1510 1511 1513 1514 1515 1516
1509 1514 1514 1513 1510 1511 1514 1516 1513 1512 1512 1512 1513 1513 1513 1513 1512 1512 1511 1509 1508 1506 1504 1503 1501 1500 1499 1498 1497 1496 1495 1495 1495 1495 1495 1496 1497 1497 1498 1499 1501 1502 1504 1505 1506 1507 1509 1510 1511
1513 1514 1514 1514 1511 1512 1514 1515 1513 1512 1512 1512 1512 1512 1512 1511 1511 1510 1509 1507 1505 1503 1501 1500 1498 1497 1495 1494 1493 1492 1491 1490 1490 1490 1490 1491 1491 1492 1493 1494 1495 1497 1498 1499 1501 1502 1503 1505 1506
1508 1511 1513 1513 1511 1513 1515 1515 1512 1511 1511 1511 1511 1511 1511 1510 1510 1508 1507 1505 1502 1500 1498 1496 1494 1493 1491 1490 1488 1487 1486 1486 1485 1485 1485 1486 1486 1486 1487 1488 1489 1490 1492 1493 1495 1496 1498 1499 1501
1508 1512 1514 1513 1512 1513 1515 1514 1511 1509 1509 1509 1509 1510 1509 1509 1507 1506 1504 1502 1500 1498 1495 1493 1491 1489 1488 1486 1485 1483 1482 1481 1481 1481 1480 1481 1481 1482 1482 1482 1483 1484 1485 1487 1489 1490 1492 1493 1496
1512 1514 1515 1515 1515 1514 1516 1516 1511 1508 1508 1508 1508 1508 1508 1507 1506 1504 1502 1500 1498 1495 1493 1490 1488 1486 1485 1483 1481 1480 1479 1477 1476 1476 1476 1476 1476 1477 1477 1477 1478 1479 1480 1481 1482 1484 1486 1487 1489
1516 1513 1513 1515 1520 1523 1520 1525 1513 1509 1508 1508 1507 1506 1506 1506 1504 1502 1500 1498 1495 1493 1490 1488 1486 1483 1481 1480 1478 1476 1474 1473 1472 1472 1471 1471 1471 1471 1472 1472 1473 1473 1474 1475 1476 1478 1480 1481 1482
1515 1513 1514 1516 1519 1523 1521 1525 1516 1509 1509 1507 1506 1505 1504 1504 1502 1500 1498 1496 1493 1491 1488 1485 1483 1481 1479 1477 1475 1473 1472 1470 1469 1469 1468 1467 1466 1466 1466 1466 1467 1467 1468 1469 1470 1472 1473 1475 1476
1514 1515 1517 1520 1523 1525 1519 1524 1517 1511 1506 1504 1503 1503 1502 1502 1500 1499 1496 1493 1491 1488 1485 1483 1480 1478 1476 1474 1472 1470 1469 1467 1466 1465 1464 1463 1462 1462 1462 1462 1461 1462 1462 1463 1464 1466 1467 1469 1470
1517 1523 1530 1529 1530 1526 1517 1519 1515 1504 1502 1501 1501 1501 1501 1500 1498 1496 1494 1491 1488 1485 1483 1480 1478 1476 1473 1471 1469 1467 1466 1465 1463 1462 1460 1459 1458 1457 1457 1457 1456 1456 1457 1458 1459 1460 1461 1463 1464
1518 1522 1530 1529 1528 1527 1517 1517 1509 1501 1499 1499 1499 1499 1499 1498 1497 1495 1492 1489 1486 1484 1481 1478 1476 1473 1471 1469 1467 1465 1464 1462 1461 1460 1458 1457 1455 1454 1454 1453 1452 1452 1452 1453 1453 1455 1456 1457 1458
1517 1521 1521 1527 1528 1529 1522 1514 1504 1500 1499 1498 1497 1497 1496 1496 1495 1493 1490 1488 1485 1482 1480 1477 1475 1472 1470 1468 1466 1464 1462 1460 1459 1457 1456 1454 1453 1452 1451 1450 1449 1448 1448 1449 1449 1450 1451 1452 1453
1517 1518 1524 1527 1526 1525 1521 1516 1508 1499 1497 1496 1495 1495 1494 1494 1493 1491 1489 1487 1484 1482 1479 1476 1474 1471 1469 1466 1464 1462 1461 1459 1458 1456 1454 1452 1451 1450 1448 1447 1446 1445 1445 1445 1446 1446 1446 1448 1448
1519 1519 1521 1525 1526 1526 1524 1514 1496 1494 1492 1493 1492 1492 1492 1491 1490 1489 1487 1485 1483 1481 1478 1475 1473 1470 1468 1465 1463 1462 1460 1458 1457 1455 1453 1451 1450 1448 1447 1445 1444 1443 1442 1442 1443 1443 1443 1443 1444
1516 1516 1519 1525 1524 1525 1526 1513 1490 1490 1489 1490 1490 1490 1489 1489 1488 1487 1486 1484 1482 1480 1477 1475 1472 1470 1467 1465 1463 1461 1459 1458 1456 1454 1452 1450 1449 1447 1445 1444 1442 1441 1441 1440 1439 1440 1440 1440 1440